Location: Praha
(50.0830°N, 14.4670°E)
Time: 06:13:25
(UTC+02:00)

ISS - Pass Details

Date: 12 July 2024
Orbit: 409 x 423 km, 51.6° (Epoch: 24 July)

Event Time Altitude Azimuth Distance (km) Brightness Sun altitude
Rises 03:02:41 0° 287° (WNW) 2,345 -0.1 -13.6°
Reaches altitude 10° 03:04:53 10° 278° (W) 1,483 -1.2 -13.5°
Maximum altitude 03:07:56 34° 212° (SSW) 705 -3.2 -13.2°
Drops below altitude 10° 03:10:58 10° 145° (SE) 1,483 -1.2 -13.0°
Sets 03:13:10 0° 136° (SE) 2,345 -0.1 -12.8°
